Volver al catálogo

FENGYUN 1C DEB

ActivoSSO
NORAD 32174·DEBRIS·🇨🇳 China

Lanzado May 10, 1999 desde Taiyuan Satellite Launch Center

Loading…

Próximos Pases (próximas 24 horas)

TLE

ActualizadoSource: Space-Track

Época: Sep 14, 2026, 20:57 UTC

1 32174U 99025CTU 26257.87294633  .00000303  00000-0  14957-3 0  9991
2 32174  98.5684 316.0159 0150961 169.5319 190.9060 14.18213166680192

Sigue FENGYUN 1C DEB en tiempo real con AllMySat

Download on the App Store